Weather History for Tekamah, NE

Change the Weather History Date:

Friday, September 21, 2012

  Actual Average Record
Temperature  
Mean Temperature 60 °F -  
Max Temperature 77 °F 74 °F 99 °F (2005)
Min Temperature 46 °F 47 °F 30 °F (1999)
Degree Days  
Heating Degree Days 4    
Growing Degree Days 10 (Base 50)    
Moisture  
Dew Point 36 °F    
Average Humidity 46    
Maximum Humidity 77    
Minimum Humidity 17    
Precipitation  
Precipitation 0.00 in - - ()
Sea Level Pressure  
Sea Level Pressure 29.86 in    
Wind  
Wind Speed 8 mph (NW)    
Max Wind Speed 25 mph    
Max Gust Speed 33 mph    
Visibility 10 miles    
Events      
Averages and records for this station are not official NWS values.
T = Trace of Precipitation, MM = Missing Value Source: NWS Daily Summary

Daily Weather History Graph

Daily Weather History Graph

Search for Another Location

Airport:

Trip Planner

Search our weather history database for the weather conditions in past years. The results will help you decide how hot, cold, wet, or windy it might be!

Date:

Astronomy

Sep. 21, 2012 Rise Set
Actual Time 7:11 AM CDT 7:22 PM CDT
Civil Twilight 6:43 AM CDT 7:50 PM CDT
Nautical Twilight 6:11 AM CDT 8:23 PM CDT
Astronomical Twilight 5:37 AM CDT 8:56 PM CDT
Moon 1:39 PM CDT (9/21) 11:19 PM CDT (9/21)
Length of Visible Light 13h 06m
Length of Day
12h 11m
Waxing Crescent, 37% of the Moon is Illuminated
Sep 21
Waxing Crescent
Sep 22
First Quarter
Sep 29
Full
Oct 8
Last Quarter
Oct 15
New

Hourly Weather History & Observations

Time (CDT) Temp. Windchill Dew Point Humidity Pressure Visibility Wind Dir Wind Speed Gust Speed Precip Events Conditions
12:54 AM 53.1 °F - 43.0 °F 69% 29.90 in 9.0 mi SSE 3.5 mph - N/A   Clear
1:54 AM 52.0 °F - 44.1 °F 74% 29.88 in 10.0 mi Calm Calm - N/A   Clear
2:54 AM 50.0 °F - 43.0 °F 77% 29.85 in 10.0 mi South 5.8 mph - N/A   Clear
3:54 AM 52.0 °F - 43.0 °F 71% 29.83 in 10.0 mi South 5.8 mph - N/A   Clear
4:54 AM 48.9 °F - 42.1 °F 77% 29.81 in 10.0 mi SE 6.9 mph - N/A   Clear
5:54 AM 51.1 °F - 39.9 °F 66% 29.80 in 10.0 mi South 5.8 mph - N/A   Clear
6:54 AM 52.0 °F - 39.9 °F 63% 29.80 in 10.0 mi SSW 5.8 mph - N/A   Clear
7:54 AM 54.0 °F - 39.9 °F 59% 29.81 in 10.0 mi Calm Calm - N/A   Clear
8:54 AM 61.0 °F - 39.9 °F 46% 29.81 in 10.0 mi North 8.1 mph - N/A   Clear
9:54 AM 66.0 °F - 37.9 °F 36% 29.82 in 10.0 mi WNW 13.8 mph 21.9 mph N/A   Clear
10:54 AM 69.1 °F - 37.0 °F 31% 29.83 in 10.0 mi NW 17.3 mph 27.6 mph N/A   Clear
11:54 AM 71.1 °F - 37.0 °F 29% 29.84 in 10.0 mi NNW 19.6 mph 32.2 mph N/A   Clear
12:54 PM 73.9 °F - 32.0 °F 21% 29.85 in 10.0 mi NNW 25.3 mph 33.4 mph N/A   Clear
1:54 PM 75.0 °F - 30.9 °F 20% 29.86 in 10.0 mi NNW 24.2 mph 29.9 mph N/A   Clear
2:54 PM 75.9 °F - 30.0 °F 19% 29.86 in 10.0 mi NNW 17.3 mph 27.6 mph N/A   Clear
3:54 PM 75.9 °F - 28.0 °F 17% 29.86 in 10.0 mi NNW 17.3 mph 26.5 mph N/A   Clear
4:54 PM 75.9 °F - 28.0 °F 17% 29.86 in 10.0 mi NW 17.3 mph 27.6 mph N/A   Clear
5:54 PM 75.0 °F - 28.9 °F 18% 29.86 in 10.0 mi NNW 16.1 mph 24.2 mph N/A   Clear
6:54 PM 71.1 °F - 30.9 °F 23% 29.88 in 10.0 mi North 9.2 mph - N/A   Clear
7:54 PM 60.1 °F - 34.0 °F 38% 29.89 in 9.0 mi North 3.5 mph - N/A   Clear
8:54 PM 54.0 °F - 35.1 °F 49% 29.89 in 6.0 mi WSW 3.5 mph - N/A   Haze
9:54 PM 48.9 °F - 35.1 °F 59% 29.90 in 7.0 mi Calm Calm - N/A   Clear
10:54 PM 46.0 °F 43.9 °F 35.1 °F 66% 29.91 in 9.0 mi West 4.6 mph - N/A   Clear
11:54 PM 46.9 °F - 36.0 °F 66% 29.93 in 10.0 mi North 4.6 mph - N/A   Clear